Location: Nitra
(0.0000°N, 18.0833°E)
Time: 20:07:45
(UTC+02:00)

A-11 Canister half - Pass Details

Date: 03 April 2023
Orbit: 1526 x 1682 km, 47.3° (Epoch: 08 June)

Event Time Altitude Azimuth Distance (km) Brightness Sun altitude
Rises 00:16:04 0° 309° (NW) 4,735 - -79.9°
Reaches altitude 10° 00:19:16 10° 304° (NW) 3,735 - -80.5°
Maximum altitude 00:28:18 52° 231° (SW) 1,839 - -82.3°
Drops below altitude 10° 00:37:16 10° 156° (SSE) 3,691 - -83.8°
Sets 00:40:25 0° 151° (SSE) 4,677 - -84.2°
